{"data":{"norad_id":64014,"epoch":"2026-09-20T05:34:05.071296Z","epoch_age_seconds":166667,"freshness":"FRESH","line1":"1 64014U 25101W   26263.23200314  .00010007  00000+0  37263-3 0  9999","line2":"2 64014  43.0022 339.6625 0001431 277.9334  82.1355 15.27582077 76805","mean_motion":15.27582077,"eccentricity":0.0001431,"inclination_deg":43.0022,"raan_deg":339.6625,"arg_perigee_deg":277.9334,"mean_anomaly_deg":82.1355,"bstar":0.00037263,"rev_number":7680,"period_min":94.266620542446,"perigee_km":482.06104192114,"apogee_km":484.02471160187,"semimajor_km":6861.1798767615,"source":"CELESTRAK","updated_at":"2026-09-21T09:00:35.183998Z"}}